Weather History for Hurlburt Field, FL

Change the Weather History Date:

Wednesday, November 13, 2013

  Actual Average Record
Temperature  
Mean Temperature 44 °F -  
Max Temperature 55 °F 69 °F 77 °F (2008)
Min Temperature 34 °F 50 °F 34 °F (2013)
Degree Days  
Heating Degree Days 20    
Moisture  
Dew Point 19 °F    
Average Humidity 39    
Maximum Humidity 68    
Minimum Humidity 21    
Precipitation  
Precipitation 0.00 in - - ()
Sea Level Pressure  
Sea Level Pressure 30.42 in    
Wind  
Wind Speed 14 mph (NE)    
Max Wind Speed 18 mph    
Max Gust Speed 29 mph    
Visibility 10 miles    
Events      
Averages and records for this station are not official NWS values.
T = Trace of Precipitation, MM = Missing Value Source: NWS Daily Summary

Daily Weather History Graph

Daily Weather History Graph

Search for Another Location

Airport:

Trip Planner

Search our weather history database for the weather conditions in past years. The results will help you decide how hot, cold, wet, or windy it might be!

Date:

Astronomy

Nov. 13, 2013 Rise Set
Actual Time 6:11 AM CST 4:50 PM CST
Civil Twilight 5:45 AM CST 5:16 PM CST
Nautical Twilight 5:16 AM CST 5:45 PM CST
Astronomical Twilight 4:48 AM CST 6:13 PM CST
Moon 2:24 PM CST (11/13) 2:19 AM CST (11/13)
Length of Visible Light 11h 30m
Length of Day
10h 39m
Waxing Gibbous, 85% of the Moon is Illuminated
Nov 13
Waxing Gibbous
Nov 17
Full
Nov 25
Last Quarter
Dec 2
New
Dec 9
First Quarter

Hourly Weather History & Observations

Time (CST) Temp. Windchill Dew Point Humidity Pressure Visibility Wind Dir Wind Speed Gust Speed Precip Events Conditions
12:58 AM 41.0 °F 32.5 °F 19.8 °F 43% 30.38 in 10.0 mi NNE 17.3 mph 28.8 mph N/A   Clear
1:58 AM 39.6 °F 31.0 °F 18.0 °F 42% 30.38 in 10.0 mi NNE 16.1 mph 28.8 mph N/A   Clear
2:58 AM 37.9 °F 29.2 °F 17.6 °F 44% 30.38 in 10.0 mi NNE 15.0 mph 23.0 mph N/A   Clear
3:58 AM 36.9 °F 26.8 °F 16.9 °F 44% 30.38 in 10.0 mi North 18.4 mph - N/A   Clear
4:58 AM 35.8 °F 26.5 °F 16.9 °F 46% 30.41 in 10.0 mi NNE 15.0 mph - N/A   Clear
5:58 AM 35.1 °F 25.9 °F 16.9 °F 48% 30.44 in 10.0 mi NNE 13.8 mph 23.0 mph N/A   Clear
6:58 AM 34.7 °F 26.9 °F 18.0 °F 51% 30.46 in 10.0 mi NNE 10.4 mph - N/A   Clear
7:58 AM 38.7 °F 30.1 °F 18.0 °F 43% 30.46 in 10.0 mi NNE 15.0 mph - N/A   Clear
8:58 AM 42.8 °F 35.1 °F 19.2 °F 39% 30.46 in 10.0 mi NNE 16.1 mph 23.0 mph N/A   Clear
9:58 AM 46.6 °F - 18.0 °F 32% 30.47 in 10.0 mi NNE 15.0 mph 23.0 mph N/A   Clear
10:58 AM 49.8 °F - 17.2 °F 27% 30.46 in 10.0 mi NNE 16.1 mph 21.9 mph N/A   Clear
11:58 AM 52.7 °F - 17.4 °F 25% 30.43 in 10.0 mi NE 10.4 mph - N/A   Clear
12:32 PM 53.6 °F - 17.6 °F 24% 30.40 in 10.0 mi North 13.8 mph 23.0 mph N/A   Clear
12:55 PM 55.4 °F - 17.6 °F 23% 30.40 in 10.0 mi ENE 17.3 mph 21.9 mph N/A   Clear
12:58 PM 54.5 °F - 17.1 °F 23% 30.41 in 10.0 mi ENE 17.3 mph 21.9 mph N/A   Clear
1:58 PM 55.4 °F - 16.3 °F 22% 30.39 in 10.0 mi NNE 13.8 mph - N/A   Clear
2:58 PM 55.6 °F - 17.2 °F 22% 30.39 in 10.0 mi NNE 16.1 mph - N/A   Clear
3:19 PM 55.4 °F - 15.8 °F 21% 30.39 in 10.0 mi ENE 15.0 mph 23.0 mph N/A   Clear
3:58 PM 53.8 °F - 18.1 °F 25% 30.40 in 10.0 mi NE 10.4 mph 18.4 mph N/A   Clear
4:58 PM 49.3 °F - 19.0 °F 30% 30.41 in 10.0 mi NE 6.9 mph - N/A   Clear
5:58 PM 44.8 °F 41.6 °F 21.6 °F 40% 30.42 in 10.0 mi NNE 5.8 mph - N/A   Clear
6:58 PM 42.1 °F 39.2 °F 24.1 °F 49% 30.45 in 10.0 mi NE 4.6 mph - N/A   Clear
7:58 PM 36.3 °F 31.6 °F 26.8 °F 68% 30.45 in 10.0 mi NNE 5.8 mph - N/A   Clear
8:58 PM 38.3 °F 33.2 °F 25.0 °F 59% 30.45 in 10.0 mi NNE 6.9 mph - N/A   Clear
9:58 PM 38.7 °F 33.6 °F 21.9 °F 51% 30.44 in 10.0 mi NE 6.9 mph - N/A   Clear
9:59 PM 39.2 °F 33.6 °F 21.2 °F 49% 30.42 in 10.0 mi NE 8.1 mph - N/A   Clear
10:08 PM 39.2 °F 34.2 °F 21.2 °F 49% 30.42 in 10.0 mi NE 6.9 mph - N/A   Clear
10:58 PM 40.3 °F 34.9 °F 20.1 °F 45% 30.42 in 10.0 mi ENE 8.1 mph - 0.00 in   Clear
11:58 PM 38.1 °F 32.9 °F 20.1 °F 48% 30.41 in 10.0 mi NE 6.9 mph - N/A   Clear